This demonstration page uses our WeatherBlox Daily Observations layout. Learn more.

Hourly Observations for August 24, 2017

Temp ( °F °C ) Dew Point ( °F °C ) Humidity (%) Winds ( mph kmh ) Pressure ( in mb ) Visibility ( mi km ) Precip ( " mm )
12:54 am 00:54 Clear 63 17.2 57 13.9 81 81 SSE 9 15 30.02 1017 10 16.0934 0 0
1:54 am 01:54 Clear 61 16.1 57 13.9 87 87 SSE 7 11 30.01 1016 10 16.0934 0 0
2:54 am 02:54 Clear 60 15.6 56 13.3 86 86 S 7 11 30.01 1016 10 16.0934 0 0
3:54 am 03:54 Clear 60 15.6 56 13.3 86 86 S 8 13 30.01 1016 10 16.0934 0 0
4:54 am 04:54 Clear 59 15 55 12.8 87 87 S 9 15 29.98 1015 10 16.0934 0 0
5:54 am 05:54 Partly Cloudy 59 15 55 12.8 87 87 S 7 11 30 1016 10 16.0934 0 0
6:54 am 06:54 Mostly Sunny 58 14.4 55 12.8 90 90 S 6 9 30.01 1016 10 16.0934 0 0
7:54 am 07:54 Sunny 62 16.7 57 13.9 84 84 SSE 3 6 30.02 1017 10 16.0934 0 0
8:54 am 08:54 Partly Cloudy 65 18.3 58 14.4 78 78 S 9 15 30.03 1017 10 16.0934 0 0
9:54 am 09:54 Mostly Cloudy 70 21.1 59 15 68 68 S 14 22 30.02 1017 10 16.0934 0 0
10:54 am 10:54 Mostly Sunny 74 23.3 59 15 60 60 S 14 22 30.01 1016 10 16.0934 0 0
11:54 am 11:54 Sunny 77 25 60 15.6 56 56 S 14 22 30 1016 10 16.0934 0 0
12:54 pm 12:54 Sunny 79 26.1 60 15.6 52 52 S 14 22 29.98 1015 10 16.0934 0 0
1:54 pm 13:54 Sunny 80 26.7 61 16.1 52 52 SSE 14 22 29.97 1015 10 16.0934 0 0
2:54 pm 14:54 Sunny 82 27.8 60 15.6 47 47 S 17 28 29.96 1015 10 16.0934 0 0
3:54 pm 15:54 Sunny 80 26.7 59 15 49 49 SSE 8 13 29.96 1015 10 16.0934 0 0
4:54 pm 16:54 Sunny 81 27.2 59 15 47 47 SSE 15 24 29.94 1014 10 16.0934 0 0
5:54 pm 17:54 Sunny 80 26.7 59 15 49 49 S 18 30 29.93 1014 10 16.0934 0 0
6:54 pm 18:54 Sunny 77 25 60 15.6 56 56 S 14 22 29.93 1014 10 16.0934 0 0
7:54 pm 19:54 Sunny 75 23.9 57 13.9 54 54 SSE 10 17 29.93 1014 10 16.0934 0 0
8:54 pm 20:54 Clear 72 22.2 59 15 64 64 SSE 13 20 29.95 1014 10 16.0934 0 0
9:54 pm 21:54 Clear 70 21.1 59 15 68 68 SSE 14 22 29.96 1015 10 16.0934 0 0
10:54 pm 22:54 Clear 70 21.1 59 15 68 68 SSE 13 20 29.98 1015 10 16.0934 0 0
11:54 pm 23:54 Clear 69 20.6 60 15.6 73 73 S 12 19 29.98 1015 10 16.0934 0 0

Powered by AerisWeather